• In United Kingdom
  • List of Countries
  • For 7 days
  • Water Temperature
  • Satellite Maps
  • Weather Map
  • Weather Widgets
  • user-avatar
    Login

    Hourly Weather Mochudi

    Today, 25 September, Tuesday

    Time Temperature Precipitation Wind Pressure Humidity
    00:00 +26°C° 0 mm 3 mps 682 mmHg 22%
    01:00 +25°C° 0 mm 3 mps 681 mmHg 24%
    02:00 +24°C° 0 mm 3 mps 681 mmHg 26%
    03:00 +22°C° 0 mm 3 mps 681 mmHg 28%
    04:00 +21°C° 0 mm 3 mps 681 mmHg 30%
    05:00 +21°C° 0 mm 3 mps 681 mmHg 33%
    06:00 +22°C° 0 mm 4 mps 681 mmHg 32%
    07:00 +23°C° 0 mm 5 mps 682 mmHg 30%
    08:00 +24°C° 0 mm 6 mps 683 mmHg 30%
    09:00 +27°C° 0 mm 6 mps 682 mmHg 27%
    10:00 +30°C° 0 mm 6 mps 682 mmHg 23%
    11:00 +33°C° 0 mm 5 mps 682 mmHg 19%
    12:00 +34°C° 0 mm 5 mps 682 mmHg 16%
    13:00 +35°C° 0 mm 4 mps 681 mmHg 13%
    14:00 +36°C° 0 mm 4 mps 681 mmHg 15%
    15:00 +36°C° 0 mm 4 mps 680 mmHg 14%
    16:00 +36°C° 0 mm 3 mps 680 mmHg 13%
    17:00 +36°C° 0 mm 3 mps 680 mmHg 12%
    18:00 +34°C° 0 mm 3 mps 680 mmHg 14%
    19:00 +31°C° 0 mm 3 mps 680 mmHg 16%
    20:00 +29°C° 0 mm 3 mps 680 mmHg 18%
    21:00 +28°C° 0 mm 3 mps 680 mmHg 20%
    22:00 +27°C° 0 mm 3 mps 680 mmHg 21%
    23:00 +26°C° 0 mm 3 mps 680 mmHg 23%

    Tomorrow, 26 September, Wednesday

    Time Temperature Precipitation Wind Pressure Humidity
    00:00 +26°C° 0 mm 3 mps 680 mmHg 24%
    01:00 +25°C° 0 mm 3 mps 679 mmHg 26%
    02:00 +25°C° 0 mm 3 mps 679 mmHg 28%
    03:00 +24°C° 0 mm 3 mps 679 mmHg 29%
    04:00 +24°C° 0 mm 3 mps 679 mmHg 31%
    05:00 +22°C° 0 mm 3 mps 679 mmHg 32%
    06:00 +24°C° 0 mm 3 mps 679 mmHg 29%
    07:00 +26°C° 0 mm 3 mps 680 mmHg 25%
    08:00 +27°C° 0 mm 4 mps 681 mmHg 21%
    09:00 +30°C° 0 mm 3 mps 681 mmHg 18%
    10:00 +33°C° 0 mm 3 mps 682 mmHg 15%
    11:00 +36°C° 0 mm 3 mps 682 mmHg 12%
    12:00 +37°C° 0 mm 3 mps 681 mmHg 11%
    13:00 +39°C° 0 mm 2 mps 681 mmHg 9%
    14:00 +40°C° 0 mm 1 mps 681 mmHg 8%
    15:00 +39°C° 0 mm 1 mps 680 mmHg 8%
    16:00 +39°C° 0 mm 1 mps 680 mmHg 8%
    17:00 +37°C° 0 mm 1 mps 679 mmHg 8%
    18:00 +36°C° 0 mm 1 mps 679 mmHg 9%
    19:00 +34°C° 0 mm 1 mps 679 mmHg 10%
    20:00 +32°C° 0 mm 2 mps 679 mmHg 11%
    21:00 +31°C° 0 mm 2 mps 680 mmHg 11%
    22:00 +30°C° 0 mm 2 mps 680 mmHg 12%
    23:00 +29°C° 0 mm 2 mps 680 mmHg 13%

    Day after tomorrow, 27 September, Thursday

    Time Temperature Precipitation Wind Pressure Humidity
    00:00 +29°C° 0 mm 2 mps 680 mmHg 14%
    01:00 +28°C° 0 mm 2 mps 679 mmHg 14%
    02:00 +28°C° 0 mm 3 mps 679 mmHg 15%
    03:00 +27°C° 0 mm 2 mps 679 mmHg 16%
    04:00 +26°C° 0 mm 2 mps 679 mmHg 18%
    05:00 +25°C° 0 mm 2 mps 679 mmHg 20%
    06:00 +27°C° 0 mm 3 mps 680 mmHg 20%
    07:00 +28°C° 0 mm 4 mps 681 mmHg 20%
    08:00 +29°C° 0 mm 5 mps 682 mmHg 20%
    09:00 +32°C° 0 mm 6 mps 682 mmHg 19%
    10:00 +34°C° 0 mm 6 mps 682 mmHg 17%
    11:00 +36°C° 0 mm 6 mps 683 mmHg 16%
    12:00 +39°C° 0 mm 5 mps 682 mmHg 14%
    13:00 +40°C° 0 mm 4 mps 681 mmHg 12%
    14:00 +40°C° 0 mm 3 mps 680 mmHg 10%
    15:00 +39°C° 0 mm 3 mps 680 mmHg 10%
    16:00 +39°C° 0 mm 3 mps 680 mmHg 10%
    17:00 +38°C° 0 mm 3 mps 679 mmHg 11%
    18:00 +37°C° 0 mm 3 mps 680 mmHg 13%
    19:00 +35°C° 0 mm 3 mps 680 mmHg 15%
    20:00 +34°C° 0 mm 3 mps 680 mmHg 17%
    21:00 +33°C° 0 mm 4 mps 680 mmHg 19%
    22:00 +32°C° 0 mm 4 mps 680 mmHg 22%
    23:00 +30°C° 0 mm 5 mps 681 mmHg 24%

    28 September, Friday

    Time Temperature Precipitation Wind Pressure Humidity
    00:00 +29°C° 0 mm 4 mps 680 mmHg 27%
    01:00 +29°C° 0 mm 4 mps 680 mmHg 30%
    02:00 +28°C° 0 mm 4 mps 680 mmHg 33%
    03:00 +27°C° 0 mm 4 mps 680 mmHg 35%
    04:00 +27°C° 0 mm 4 mps 680 mmHg 37%
    05:00 +26°C° 0 mm 4 mps 680 mmHg 38%
    06:00 +27°C° 0 mm 4 mps 680 mmHg 36%
    07:00 +28°C° 0 mm 5 mps 681 mmHg 34%
    08:00 +29°C° 0 mm 6 mps 682 mmHg 32%
    09:00 +33°C° 0 mm 5 mps 682 mmHg 27%
    10:00 +35°C° 0 mm 5 mps 682 mmHg 21%
    11:00 +39°C° 0 mm 5 mps 682 mmHg 16%
    12:00 +40°C° 0 mm 4 mps 681 mmHg 14%
    13:00 +40°C° 0 mm 4 mps 681 mmHg 12%
    14:00 +40°C° 0 mm 3 mps 680 mmHg 9%
    15:00 +40°C° 0 mm 3 mps 680 mmHg 10%
    16:00 +40°C° 0 mm 2 mps 680 mmHg 10%
    17:00 +39°C° 0 mm 2 mps 679 mmHg 10%
    18:00 +37°C° 0.1 mm 3 mps 680 mmHg 12%
    19:00 +35°C° 0.1 mm 3 mps 680 mmHg 15%
    20:00 +33°C° 0.1 mm 3 mps 681 mmHg 18%
    21:00 +31°C° 0 mm 3 mps 681 mmHg 21%
    22:00 +31°C° 0 mm 3 mps 682 mmHg 24%
    23:00 +30°C° 0 mm 3 mps 682 mmHg 27%

    29 September, Saturday

    Time Temperature Precipitation Wind Pressure Humidity
    00:00 +29°C° 0 mm 3 mps 682 mmHg 28%
    01:00 +29°C° 0 mm 3 mps 682 mmHg 29%
    02:00 +28°C° 0 mm 2 mps 681 mmHg 30%
    03:00 +28°C° 0 mm 2 mps 681 mmHg 30%
    04:00 +27°C° 0 mm 2 mps 681 mmHg 31%
    05:00 +27°C° 0 mm 2 mps 681 mmHg 31%
    06:00 +28°C° 0 mm 3 mps 682 mmHg 30%
    07:00 +29°C° 0 mm 3 mps 682 mmHg 29%
    08:00 +30°C° 0 mm 4 mps 683 mmHg 28%
    09:00 +32°C° 0 mm 5 mps 683 mmHg 26%
    10:00 +33°C° 0 mm 5 mps 684 mmHg 24%
    11:00 +35°C° 0 mm 6 mps 684 mmHg 22%
    12:00 +36°C° 0 mm 6 mps 684 mmHg 21%
    13:00 +36°C° 0 mm 6 mps 683 mmHg 19%
    14:00 +37°C° 0 mm 5 mps 683 mmHg 18%
    15:00 +36°C° 0 mm 6 mps 683 mmHg 19%
    16:00 +36°C° 0 mm 6 mps 683 mmHg 21%
    17:00 +35°C° 0 mm 6 mps 683 mmHg 22%
    18:00 +33°C° 0 mm 6 mps 683 mmHg 26%
    19:00 +30°C° 0 mm 7 mps 684 mmHg 30%
    20:00 +29°C° 0 mm 7 mps 685 mmHg 35%
    21:00 +27°C° 0.1 mm 7 mps 685 mmHg 39%
    22:00 +26°C° 0.1 mm 7 mps 685 mmHg 44%
    23:00 +23°C° 0.1 mm 7 mps 685 mmHg 49%

    30 September, Sunday

    Time Temperature Precipitation Wind Pressure Humidity
    00:00 +22°C° 0.1 mm 7 mps 685 mmHg 50%
    01:00 +21°C° 0.1 mm 7 mps 685 mmHg 51%
    02:00 +20°C° 0.1 mm 6 mps 685 mmHg 53%
    03:00 +20°C° 0 mm 6 mps 685 mmHg 54%
    04:00 +19°C° 0 mm 6 mps 686 mmHg 55%
    05:00 +17°C° 0 mm 6 mps 686 mmHg 56%
    06:00 +19°C° 0 mm 6 mps 687 mmHg 55%
    07:00 +19°C° 0 mm 6 mps 687 mmHg 54%
    08:00 +19°C° 0 mm 6 mps 688 mmHg 53%
    09:00 +21°C° 0 mm 6 mps 688 mmHg 47%
    10:00 +23°C° 0 mm 6 mps 688 mmHg 40%
    11:00 +26°C° 0 mm 6 mps 688 mmHg 34%
    12:00 +28°C° 0 mm 6 mps 687 mmHg 31%
    13:00 +29°C° 0 mm 6 mps 687 mmHg 28%
    14:00 +30°C° 0 mm 6 mps 686 mmHg 25%
    15:00 +30°C° 0 mm 5 mps 686 mmHg 24%
    16:00 +30°C° 0 mm 5 mps 685 mmHg 24%
    17:00 +30°C° 0 mm 5 mps 685 mmHg 24%
    18:00 +29°C° 0 mm 4 mps 685 mmHg 26%
    19:00 +27°C° 0 mm 4 mps 685 mmHg 29%
    20:00 +26°C° 0 mm 3 mps 686 mmHg 32%
    21:00 +25°C° 0 mm 3 mps 686 mmHg 35%
    22:00 +23°C° 0 mm 4 mps 686 mmHg 38%
    23:00 +22°C° 0 mm 4 mps 686 mmHg 42%
    Show more